This is the latest recevied weather packets stored in our database for station/object IZ1UQG-1. If no packets are shown the sender has not sent any weather packets the latest 10 day(s).
| Time | Temp. | Humidity | Pressure | Rain* | Wind** | Luminosity | Snow |
|---|---|---|---|---|---|---|---|
| 1778169531 | 23.89° C | 43% | 1009.9 hPa | 41.4 mm | - | - | - |
| 1778169231 | 24.44° C | 43% | 1010 hPa | 49.02 mm | - | - | - |
| 1778168931 | 24.44° C | 42% | 1010.1 hPa | 45.47 mm | - | - | - |
| 1778168631 | 24.44° C | 42% | 1010.1 hPa | 49.02 mm | - | - | - |
| 1778168331 | 25° C | 43% | 1010.2 hPa | 44.45 mm | - | - | - |
| 1778168176 | 25° C | 43% | 1010.1 hPa | 40.39 mm | - | - | - |
| 1778168031 | 25° C | 43% | 1010.1 hPa | 40.39 mm | - | - | - |
| 1778167938 | 25.56° C | 43% | 1010.3 hPa | 42.93 mm | - | - | - |
| 1778167731 | 25.56° C | 43% | 1010.3 hPa | 42.93 mm | - | - | - |
| 1778167680 | 25° C | 44% | 1010.1 hPa | 40.39 mm | - | - | - |
| 1778167431 | 25° C | 44% | 1010.1 hPa | 45.97 mm | - | - | - |
| 1778167131 | 25° C | 44% | 1010.1 hPa | 40.39 mm | - | - | - |
| 1778166831 | 25° C | 45% | 1010.2 hPa | 40.39 mm | - | - | - |
| 1778166531 | 25° C | 43% | 1010.2 hPa | 42.93 mm | - | - | - |
| 1778166231 | 25° C | 44% | 1010.3 hPa | 42.93 mm | - | - | - |
| 1778165931 | 25° C | 44% | 1010.3 hPa | 39.12 mm | - | - | - |
| 1778165631 | 25° C | 43% | 1010.3 hPa | 36.58 mm | - | - | - |
| 1778165331 | 25° C | 44% | 1010.4 hPa | 34.04 mm | - | - | - |
| 1778165031 | 25° C | 45% | 1010.5 hPa | 35.05 mm | - | - | - |
| 1778164731 | 25° C | 44% | 1010.5 hPa | 38.1 mm | - | - | - |
| 1778164431 | 25° C | 43% | 1010.4 hPa | 35.56 mm | - | - | - |
| 1778164131 | 25° C | 42% | 1010.5 hPa | 34.04 mm | - | - | - |
| 1778163831 | 25.56° C | 43% | 1010.6 hPa | 31.5 mm | - | - | - |
| 1778163531 | 25.56° C | 42% | 1010.4 hPa | 28.96 mm | - | - | - |
| 1778163231 | 25.56° C | 42% | 1010.6 hPa | 31.5 mm | - | - | - |
* Rain latest hour (hover to see other rain measurements)
** Current wind speed in m/s (hover to see current wind gust speed)